SES-22

Last updated on Sun Apr 12 2026 00:02:56 GMT+0000 (Coordinated Universal Time)

1 52933U 22071A 26101.49313059 .00000106 00000+0 00000+0 0 9993 2 52933 0.0120 171.6118 0001204 220.2565 206.3644 1.00273629 6855
UTC large
Height (km)
Speed (km/s)
/
Latitude / Longitude
Inclination (degrees)
Orbital Period (minutes)
Azimuth
Elevation
Range (km)
Doppler Factor

Next 0 passes for location: London (51.5072 / 0.1276)

Sorry there are no passes over London.
SES-22